This demonstration page uses our WeatherBlox Daily Observations layout. Learn more.

39.29038, -76.61219

Hourly Observations for April 20, 2018

Temp ( °F °C ) Dew Point ( °F °C ) Humidity (%) Winds ( mph kmh ) Pressure ( in mb ) Visibility ( mi km ) Precip ( " mm )
12:54 am 00:54 undefined 44 6.7 20 -6.7 38 38 undefined N/A 30.15 1021 N/A 0 0
1:54 am 01:54 undefined 43 6.1 19 -7.2 38 38 undefined N/A 30.17 1022 N/A 0 0
2:54 am 02:54 undefined 41 5 20 -6.7 43 43 undefined N/A 30.18 1022 N/A 0 0
3:54 am 03:54 undefined 40 4.4 21 -6.1 47 47 undefined N/A 30.2 1023 N/A 0 0
4:54 am 04:54 undefined 39 3.9 22 -5.6 50 50 undefined N/A 30.22 1023 N/A 0 0
5:54 am 05:54 undefined 39 3.9 22 -5.6 50 50 undefined N/A 30.24 1024 N/A 0 0
6:54 am 06:54 undefined 38 3.3 23 -5 55 55 undefined N/A 30.25 1025 N/A 0 0
7:54 am 07:54 undefined 41 5 23 -5 49 49 undefined N/A 30.27 1025 N/A 0 0
8:54 am 08:54 undefined 43 6.1 21 -6.1 42 42 undefined N/A 30.27 1025 N/A 0 0
9:54 am 09:54 undefined 46 7.8 21 -6.1 37 37 undefined N/A 30.28 1025 N/A 0 0
10:54 am 10:54 undefined 48 8.9 22 -5.6 36 36 undefined N/A 30.29 1026 N/A 0 0
11:54 am 11:54 undefined 50 10 22 -5.6 33 33 undefined N/A 30.29 1026 N/A 0 0
12:54 pm 12:54 undefined 53 11.7 24 -4.4 32 32 undefined N/A 30.28 1026 N/A 0 0
1:54 pm 13:54 undefined 54 12.2 24 -4.4 31 31 undefined N/A 30.27 1025 N/A 0 0
2:54 pm 14:54 undefined 56 13.3 24 -4.4 29 29 undefined N/A 30.26 1025 N/A 0 0
3:54 pm 15:54 undefined 58 14.4 25 -3.9 28 28 undefined N/A 30.26 1025 N/A 0 0
4:54 pm 16:54 undefined 59 15 24 -4.4 26 26 undefined N/A 30.26 1025 N/A 0 0
5:54 pm 17:54 undefined 58 14.4 24 -4.4 27 27 undefined N/A 30.27 1025 N/A 0 0
6:54 pm 18:54 undefined 58 14.4 24 -4.4 27 27 undefined N/A 30.27 1025 N/A 0 0
7:54 pm 19:54 undefined 58 14.4 24 -4.4 27 27 undefined N/A 30.3 1026 N/A 0 0
8:54 pm 20:54 undefined 57 13.9 24 -4.4 28 28 undefined N/A 30.32 1027 N/A 0 0
9:54 pm 21:54 undefined 55 12.8 24 -4.4 30 30 undefined N/A 30.34 1028 N/A 0 0
10:54 pm 22:54 undefined 52 11.1 27 -2.8 38 38 undefined N/A 30.38 1029 N/A 0 0
11:54 pm 23:54 undefined 49 9.4 26 -3.3 41 41 undefined N/A 30.4 1030 N/A 0 0

Powered by AerisWeather